Showing default

OPS 8068, 1580

Orbit data source: Space-Track

OPS 8068, 1580 is a payload satellite owned by USAF SSD (US) in SSO that was launched on Fri, 10 Sep 1965 UTC via a THOR BURNER 1 launch vehicle from the Air Force Western Test Range (AFWTR). Payloads include a variety of satellites, spacecraft, and rockets equipped with specific instruments for various scientific and technological missions. These include communications satellites like Starlink; space stations such as the ISS; scientific satellites like the Hubble; Earth observation satellites from companies like Planet Labs, Umbra, and HawkEye 360; GPS; miniature CubeSats for education and research; and military/defense satellites.

Loading next visibility...
OPS 8068 details
Identifier
1580, 1965-072A
Orbit
SSO
Last TLE update4 hours ago
Origin
Flag of USUSAF SSD (US)
ManufacturerRCA/East Windsor
MissionDefense Weather
Bus & MotorP35, Unknown motor
Mass72 kg wet, 72 kg dry
Launch date (UTC)
1965-09-10 (59 years ago)
Launch vehicle
THOR BURNER 1
Launch site
Air Force Western Test Range (AFWTR)
Object type
Payload
Rocket body
Debris
Shape & HBRCyl, 0.6 m
Radar Cross Section0.377 m², Medium (>0.1 m² and < 1m²)

Expand to show TLE details & history

TLE from 4 hours ago
0 OPS 8068
1  1580U 65072A   24356.46000075  .00001190  00000-0  36800-3 0  9997
2  1580  98.3546 161.6459 0230236 209.6031 149.1955 14.28995363 76029
Epoch: 2024-12-21T11:02Z
Definitive object data (Epoch: 2024-12-21T11:02:24.064Z)
Latitude-0.00003°
Longitude-94.46521°
Altitude940.88 km
Speed7.308 km/s
True Right ascension10h 46m 35s
True Declination0° 00' 00"
Sunlit
Object was in daylight at TLE epoch
Visualization TLE readout
Latitude23.32679°
Longitude89.31016°
Altitude695.391 km
Speed7.564 km/s
Apparent Right ascension00h 22m 16s
Apparent Declination-7° 00' 27"
Sunlit
Object is in daylight
Visualization observer readout
Local Sidereal Time14:11:01
Azimuth43.8° NE
Elevation-49.062°
Doppler factor1
Orbital elements
Apogee altitude957.306 km
Perigee altitude627.131 km
Semi-major axis7,170.355 km
Eccentricity0.0230236
Inclination98.3546°
RAAN161.6459°
Arg. of periapsis209.6031°
True anomaly150.51387°
Mean anomaly149.1955°
Eccentric anomaly149.85791°
Mean motion3.57464 °/min
BSTAR0.000368
Orbital period100.71 mins
Loading maneuver chart data...
Loading historical data...
Loading historical data...
Loading historical data...
Loading historical data...
Loading historical data...
Loading historical data...
Loading historical data...

OPS 8068 Visibility forecast

Observer location: undefined°, undefined

Span
Click to sort rows by Start time (UTC) header in descending order
Start Az.
Max El. time (UTC)
Max El. Az.
Max El.
End time (UTC)
End Az.
8 mins2024-12-21 23:24:47.256Z36.129° NE2024-12-21 23:28:47.256Z98.323° ESE27.864°2024-12-21 23:32:47.256Z158.593° S
6 mins2024-12-22 01:05:47.256Z334.134° NNW2024-12-22 01:07:47.256Z301.71° NW23.889°2024-12-22 01:11:47.256Z240.329° WSW
10 mins2024-12-22 10:41:47.256Z141.01° SSE2024-12-22 10:46:47.256Z55.034° ENE37.632°2024-12-22 10:51:47.256Z358.087° N
8 mins2024-12-22 12:22:47.256Z225.371° WSW2024-12-22 12:25:47.256Z262.505° W22.396°2024-12-22 12:30:47.256Z319.274° NNW
|